STARLINK-1665 (46356 NORAD) Tracking and Keplerian Element Data

This shows tracking and keplerian element data for the satellite.

Feedback or suggestion? Click here.




ElementValue
Catalog46356
NameSTARLINK-1665
Epoch Orbit402
Epoch Day267.83334491
Epoch Year2020
RAAN329.8199
Inclination53.0007
Eccentricity0.000145
Argument of Perigee63.0697
Mean Anonmoly153.4919
Mean Motion15.62647581
Decay Rate-0.00096461
L11 46356U 20062AH 20267.83334491 -.00096461 00000-0 -10645-2 0 9992
L22 46356 53.0007 329.8199 0001450 63.0697 153.4919 15.62647581 4026

Live tracking and technical data element details for STARLINK-1665 (NORAD 46356). STARLINK-1665 can be tracked NOW for your location showing map with azimuth and elevation plus other details from your city location.

Track the satellite on the map from your city or location and see movement details for azimuth, elevation, latitude, longitude, range, height, and movement on the map or in text.







IsCatalogInMostPopularTable: catalog: 46356, numindb: 6
Update: records affected: 1



GetName: 46356 STARLINK-1665

Hit Count: updated at: Thu, 24 Sep 2020 18:10:38 GMT